Weather History for CYYG - May, 2013

Change the Weather History Date:

Wednesday, May 8, 2013

  Actual Average Record
Temperature  
Mean Temperature 58 °F -  
Max Temperature 76 °F 60 °F - ()
Min Temperature 40 °F 42 °F - ()
Degree Days  
Heating Degree Days 7    
Growing Degree Days 8 (Base 50)    
Moisture  
Dew Point 49 °F    
Average Humidity 68    
Maximum Humidity 100    
Minimum Humidity 40    
Precipitation  
Precipitation 0.00 in 0.13 in - ()
Sea Level Pressure  
Sea Level Pressure 30.23 in    
Wind  
Wind Speed 6 mph ()    
Max Wind Speed 15 mph    
Max Gust Speed 25 mph    
Visibility 15.0 miles    
Events      
T = Trace of Precipitation, MM = Missing Value Source: Averaged Metar Reports

Daily Weather History Graph

Daily Weather History Graph

Search for Another Location

Airport or City:

Trip Planner

Search our weather history database for the weather conditions in past years. The results will help you decide how hot, cold, wet, or windy it might be!

Date:

Astronomy

May. 08, 2013 Rise Set
Actual Time 5:48 AM ADT 8:30 PM ADT
Civil Twilight 5:13 AM ADT 9:05 PM ADT
Nautical Twilight 4:30 AM ADT 9:48 PM ADT
Astronomical Twilight 3:39 AM ADT 10:39 PM ADT
Moon 4:58 AM ADT (5/8) 7:21 PM ADT (5/8)
Length of Visible Light 15h 51m
Length of Day
14h 42m
Waning Crescent, 2% of the Moon is Illuminated
May 8
Waning Crescent
May 9
New
May 18
First Quarter
May 25
Full
May 31
Last Quarter

Hourly Weather History & Observations

Time (ADT) Temp. Windchill Dew Point Humidity Pressure Visibility Wind Dir Wind Speed Gust Speed Precip Events Conditions
12:00 AM 57.2 °F - 48.2 °F 72% 30.13 in 15.0 mi WSW 15.0 mph 25.3 mph N/A   Overcast
1:00 AM 55.4 °F - 46.4 °F 72% 30.13 in 15.0 mi WSW 13.8 mph - N/A   Mostly Cloudy
2:00 AM 53.6 °F - 46.4 °F 77% 30.14 in 15.0 mi WSW 9.2 mph - N/A   Scattered Clouds
3:00 AM 51 °F - 45 °F 74% 30.16 in 15 mi SW 2.3 mph - -   Clear
3:00 AM 51.8 °F - 44.6 °F 76% 30.16 in 15.0 mi SW 3.5 mph - N/A   Partly Cloudy
4:00 AM 50.0 °F - 46.4 °F 87% 30.17 in 15.0 mi SW 4.6 mph - N/A   Clear
5:00 AM 46.4 °F - 46.4 °F 100% 30.19 in 15.0 mi Calm Calm - N/A   Clear
6:00 AM 42.8 °F - 42.8 °F 100% 30.22 in 15.0 mi Calm Calm - N/A   Partly Cloudy
7:00 AM 46.4 °F 45.2 °F 44.6 °F 93% 30.25 in 15.0 mi North 3.5 mph - N/A   Partly Cloudy
8:00 AM 50.0 °F - 44.6 °F 82% 30.27 in 15.0 mi East 3.5 mph - N/A   Partly Cloudy
9:00 AM 57 °F - 48 °F 64% 30.28 in 15 mi SE 2.3 mph - -   Clear
9:00 AM 57.2 °F - 48.2 °F 72% 30.28 in 15.0 mi SSE 4.6 mph - N/A   Partly Cloudy
10:00 AM 60.8 °F - 50.0 °F 68% 30.29 in 15.0 mi SSE 5.8 mph - N/A   Partly Cloudy
11:00 AM 60.8 °F - 50.0 °F 68% 30.30 in 15.0 mi South 6.9 mph - N/A   Clear
12:00 PM 64.4 °F - 50.0 °F 59% 30.30 in 15.0 mi ESE 3.5 mph - N/A   Clear
1:00 PM 68.0 °F - 51.8 °F 56% 30.30 in 15.0 mi SSW 4.6 mph - N/A   Partly Cloudy
2:00 PM 71.6 °F - 55.4 °F 57% 30.28 in 15.0 mi SSE 8.1 mph - N/A   Partly Cloudy
3:00 PM 73 °F - 53 °F 40% 30.27 in 15 mi SSE 4.6 mph - -   Scattered Clouds
3:00 PM 73.4 °F - 53.6 °F 50% 30.27 in 15.0 mi SE 5.8 mph - N/A   Partly Cloudy
4:00 PM 75.2 °F - 53.6 °F 47% 30.25 in 15.0 mi SSW 11.5 mph - N/A   Partly Cloudy
5:00 PM 75.2 °F - 53.6 °F 47% 30.24 in 15.0 mi South 10.4 mph - N/A   Partly Cloudy
6:00 PM 73.4 °F - 57.2 °F 57% 30.23 in 15.0 mi SSE 8.1 mph - N/A   Partly Cloudy
7:00 PM 68.0 °F - 53.6 °F 60% 30.23 in 15.0 mi SSE 8.1 mph - N/A   Partly Cloudy
8:00 PM 66.2 °F - 51.8 °F 60% 30.23 in 15.0 mi SE 10.4 mph - N/A   Scattered Clouds
9:00 PM 61 °F - 50 °F 57% 30.23 in 15 mi SE 5.8 mph - -   Scattered Clouds
9:00 PM 60.8 °F - 50.0 °F 68% 30.23 in 15.0 mi SE 5.8 mph - N/A   Scattered Clouds
10:00 PM 60.8 °F - 50.0 °F 68% 30.24 in 15.0 mi South 4.6 mph - N/A   Scattered Clouds
11:00 PM 55.4 °F - 50.0 °F 82% 30.25 in 15.0 mi SSW 9.2 mph - N/A   Clear